Regional Weather Roundup
Issued by NWS

Home | Current Version | Previous Version | Graphics & Text | Print | Product List | Glossary On
Versions: 1 2 3 4 5 6 7 8 9 10 11 12 13 14 15 16 17 18 19 20 21 22 23 24 25 26 27
000
ASUS45 KCYS 212110
RWRWY

WYOMING REGIONAL WEATHER ROUNDUP
NATIONAL WEATHER SERVICE CHEYENNE WY
300 PM MDT SAT OCT 21 2017

NOTE:  "FAIR" INDICATES FEW OR NO CLOUDS BELOW 12,000 FEET
WITH NO SIGNIFICANT WEATHER AND/OR OBSTRUCTIONS TO VISIBILITY.

WYZ001-212200-
YELLOWSTONE NATIONAL PARK

CITY           SKY/WX    TMP DP  RH WIND       PRES   REMARKS
LK YELLOWSTONE   N/A     27  19  72 W9        30.10R WCI  18
W YELLOWSTONE  NOT AVBL

$$
WYZ002>013-054>058-071-098>099-212200-
NORTHERN WYOMING

CITY           SKY/WX    TMP DP  RH WIND       PRES   REMARKS
JACKSON        CLOUDY    35  19  52 W14G22    30.13R WCI  26
CODY           PTSUNNY   47  15  27 SW18G31   29.98S
GREYBULL       FAIR      55  12  18 W21G28    29.94R
WORLAND        CLOUDY    53  10  18 NE6       29.94S
SHERIDAN       CLOUDY    54  11  18 NW17      29.90R
BUFFALO        FAIR      53   1  12 W22       29.93R
GILLETTE       FAIR      52  13  21 NW24G32   29.90S
HULETT         FAIR      52  19  28 NW17G26   29.88S
NEWCASTLE      FAIR      52  14  22 NW23G30   29.91S

$$
WYZ014>020-022>026-101>103-212200-
CENTRAL WYOMING

CITY           SKY/WX    TMP DP  RH WIND       PRES   REMARKS
BIG PINEY      FAIR      39  11  31 N6G16     30.12S WCI  35
PINEDALE       CLOUDY    36  12  38 NW12      30.13S WCI  27
DUBOIS         FAIR      34  12  40 NW30G39   30.02S WCI  20
LANDER         FAIR      47   9  21 W15       29.99S
RIVERTON       PTSUNNY   49  10  20 NW16G24   29.99S
CASPER         FAIR      51   8  17 W24G36    29.96S
DOUGLAS        FAIR      51   8  17 NW20G30   29.95R

$$
WYZ021-027>030-104>119-212200-
SOUTHERN WYOMING

CITY           SKY/WX    TMP DP  RH WIND       PRES   REMARKS
EVANSTON       FAIR      41  16  36 W20G29    30.19R
KEMMERER       FAIR      39  12  33 W21G31    30.15S WCI  29
FORT BRIDGER   MOCLDY    42  15  33 W22G29    30.19S
ROCK SPRINGS   FAIR      39  11  31 W23       30.13S WCI  28
DIXON          FAIR      41  20  42 W16G25    30.16S
RAWLINS        CLOUDY    40  10  29 W30G40    30.07R WCI  28
SARATOGA       FAIR      39  23  52 SW18G26   30.11S WCI  30
LARAMIE        FAIR      39  12  33 W28G36    30.05S WCI  28
CHEYENNE       FAIR      46  12  25 NW22G36   30.03R
TORRINGTON     FAIR      54   7  15 NW17      29.94R
PINE BLUFFS    FAIR      52   9  17 W25G36    30.01R

$$




USA.gov is the U.S. government's official web portal to all federal, state and local government web resources and services.